Philadelphia Wings Airport, PA

7:33 AM EST on November 15, 2019 (GMT -0500)
Philadelphia Wings Airport

Weather History for KLOM - October, 2019

Change the Weather History Date:

Wednesday, October 23, 2019

  Actual Average (KPNE) Record (KPNE)
Temperature  
Mean Temperature 53 °F -  
Max Temperature 65 °F 60 °F 81 °F (2007)
Min Temperature 41 °F 41 °F 30 °F (1997)
Degree Days  
Heating Degree Days 12    
Growing Degree Days 3 (Base 50)    
Moisture  
Dew Point 46 °F    
Average Humidity 75    
Maximum Humidity 99    
Minimum Humidity 37    
Precipitation  
Precipitation 0.01 in - - ()
Sea Level Pressure  
Sea Level Pressure 29.99 in    
Wind  
Wind Speed 5 mph (West)    
Max Wind Speed 15 mph    
Max Gust Speed 23 mph    
Visibility 9 miles    
Events      
Averages and records for this station are not official NWS values.
T = Trace of Precipitation, MM = Missing Value Source: NWS Daily Summary

Daily Weather History Graph

Daily Weather History Graph

Search for Another Location

Airport or City:

Astronomy

Oct. 23, 2019 Rise Set
Actual Time 7:20 AM EDT 6:10 PM EDT
Civil Twilight 6:52 AM EDT 6:37 PM EDT
Nautical Twilight 6:20 AM EDT 7:09 PM EDT
Astronomical Twilight 5:49 AM EDT 7:40 PM EDT
Moon 1:35 AM EDT (10/23) 3:59 PM EDT (10/23)
Length of Visible Light 11h 45m
Length of Day
10h 50m
Waning Crescent, 27% of the Moon is Illuminated
Oct 23
Waning Crescent
Oct 27
New
Nov 4
First Quarter
Nov 12
Full
Nov 19
Last Quarter

Hourly Weather History & Observations

Time (EDT) Temp. Windchill Dew Point Humidity Pressure Visibility Wind Dir Wind Speed Gust Speed Precip Events Conditions
12:15 AM 59.9 °F - 58.8 °F 96% 29.82 in 10.0 mi West 5.8 mph - N/A   Overcast
12:35 AM 59.4 °F - 58.3 °F 96% 29.82 in 10.0 mi West 5.8 mph - N/A   Overcast
12:55 AM 59.0 °F - 57.7 °F 96% 29.82 in 10.0 mi WNW 4.6 mph - N/A   Mostly Cloudy
1:15 AM 58.3 °F - 57.4 °F 97% 29.82 in 10.0 mi WNW 5.8 mph - N/A   Mostly Cloudy
1:35 AM 57.7 °F - 57.0 °F 97% 29.81 in 7.0 mi WNW 5.8 mph - N/A   Scattered Clouds
1:55 AM 57.9 °F - 57.0 °F 97% 29.82 in 7.0 mi WNW 4.6 mph - N/A   Mostly Cloudy
2:15 AM 57.0 °F - 56.3 °F 97% 29.82 in 7.0 mi WNW 4.6 mph - 0.01 in   Scattered Clouds
2:35 AM 56.5 °F - 55.9 °F 98% 29.82 in 7.0 mi West 3.5 mph - 0.01 in   Scattered Clouds
2:55 AM 55.6 °F - 55.2 °F 99% 29.82 in 5.0 mi Calm Calm - 0.01 in   Scattered Clouds
3:15 AM 55.2 °F - 54.9 °F 99% 29.82 in 5.0 mi Calm Calm - N/A   Clear
3:35 AM 54.9 °F - 54.3 °F 98% 29.82 in 7.0 mi West 4.6 mph - N/A   Clear
3:55 AM 54.7 °F - 54.1 °F 98% 29.83 in 7.0 mi WNW 4.6 mph - N/A   Clear
4:15 AM 54.3 °F - 53.8 °F 98% 29.83 in 7.0 mi West 4.6 mph - N/A   Clear
4:35 AM 53.8 °F - 53.2 °F 98% 29.84 in 7.0 mi West 3.5 mph - N/A   Clear
4:55 AM 53.2 °F - 52.9 °F 99% 29.85 in 5.0 mi Calm Calm - N/A   Clear
5:15 AM 53.1 °F - 52.7 °F 99% 29.86 in 5.0 mi West 4.6 mph - N/A   Clear
5:35 AM 52.9 °F - 52.3 °F 98% 29.87 in 5.0 mi West 4.6 mph - N/A   Scattered Clouds
5:55 AM 52.5 °F - 51.8 °F 97% 29.88 in 7.0 mi West 4.6 mph - N/A   Clear
6:15 AM 52.2 °F - 51.4 °F 97% 29.89 in 7.0 mi West 4.6 mph - N/A   Clear
6:35 AM 51.6 °F - 51.1 °F 98% 29.91 in 7.0 mi WSW 4.6 mph - N/A   Clear
6:55 AM 51.3 °F - 50.7 °F 98% 29.92 in 7.0 mi West 4.6 mph - N/A   Clear
7:15 AM 51.1 °F - 50.4 °F 97% 29.92 in 7.0 mi Calm Calm - N/A   Clear
7:35 AM 50.9 °F - 50.0 °F 97% 29.93 in 7.0 mi West 3.5 mph - N/A   Clear
7:55 AM 51.3 °F - 50.5 °F 97% 29.94 in 10.0 mi West 4.6 mph - N/A   Clear
8:15 AM 52.3 °F - 50.9 °F 95% 29.96 in 10.0 mi West 4.6 mph - N/A   Clear
8:55 AM 54.3 °F - 51.6 °F 91% 29.98 in 10.0 mi West 4.6 mph - N/A   Clear
9:15 AM 55.4 °F - 51.6 °F 87% 29.99 in 10.0 mi West 5.8 mph - N/A   Clear
9:35 AM 56.3 °F - 51.6 °F 84% 29.99 in 10.0 mi West 4.6 mph - N/A   Clear
9:55 AM 56.8 °F - 49.3 °F 76% 30.00 in 10.0 mi WNW 6.9 mph - N/A   Clear
10:55 AM 59.5 °F - 45.9 °F 61% 30.01 in 10.0 mi WNW 9.2 mph - N/A   Clear
11:15 AM 60.4 °F - 43.9 °F 54% 30.01 in 10.0 mi NW 9.2 mph - N/A   Clear
11:35 AM 61.5 °F - 43.9 °F 52% 30.01 in 10.0 mi NW 6.9 mph - N/A   Clear
11:55 AM 61.5 °F - 43.3 °F 51% 30.02 in 10.0 mi West 6.9 mph - N/A   Scattered Clouds
12:35 PM 63.3 °F - 41.0 °F 44% 30.02 in 10.0 mi West 11.5 mph 23.0 mph N/A   Overcast
12:55 PM 63.5 °F - 38.1 °F 39% 30.02 in 10.0 mi West 15.0 mph 23.0 mph N/A   Mostly Cloudy
1:15 PM 64.0 °F - 38.8 °F 39% 30.01 in 10.0 mi NW 12.7 mph 21.9 mph N/A   Scattered Clouds
1:35 PM 64.2 °F - 38.7 °F 39% 30.01 in 10.0 mi WNW 12.7 mph - N/A   Scattered Clouds
1:55 PM 64.2 °F - 39.4 °F 40% 30.01 in 10.0 mi West 9.2 mph - N/A   Scattered Clouds
2:15 PM 63.9 °F - 39.4 °F 41% 30.01 in 10.0 mi WNW 10.4 mph 17.3 mph N/A   Scattered Clouds
2:35 PM 64.0 °F - 37.8 °F 38% 30.01 in 10.0 mi WNW 10.4 mph 19.6 mph N/A   Clear
2:55 PM 64.4 °F - 38.7 °F 39% 30.01 in 10.0 mi West 5.8 mph - N/A   Clear
3:15 PM 65.1 °F - 38.7 °F 38% 30.02 in 10.0 mi West 9.2 mph - N/A   Scattered Clouds
3:35 PM 63.9 °F - 37.0 °F 37% 30.02 in 10.0 mi WNW 8.1 mph 18.4 mph N/A   Clear
3:55 PM 63.9 °F - 38.3 °F 39% 30.03 in 10.0 mi WNW 11.5 mph - N/A   Clear
4:15 PM 63.3 °F - 37.9 °F 39% 30.04 in 10.0 mi West 8.1 mph - N/A   Clear
4:35 PM 63.3 °F - 37.9 °F 39% 30.04 in 10.0 mi West 9.2 mph - N/A   Clear
4:55 PM 62.8 °F - 37.9 °F 40% 30.04 in 10.0 mi West 10.4 mph - N/A   Clear
5:15 PM 62.2 °F - 37.0 °F 39% 30.05 in 10.0 mi West 9.2 mph - N/A   Clear
5:35 PM 61.3 °F - 37.4 °F 41% 30.06 in 10.0 mi West 3.5 mph - N/A   Clear
5:55 PM 60.3 °F - 36.9 °F 42% 30.07 in 10.0 mi WSW 5.8 mph - N/A   Clear
6:15 PM 58.8 °F - 37.4 °F 45% 30.08 in 10.0 mi West 4.6 mph - N/A   Clear
6:35 PM 57.4 °F - 37.9 °F 48% 30.09 in 10.0 mi WSW 3.5 mph - N/A   Clear
6:55 PM 51.8 °F - 40.8 °F 66% 30.10 in 10.0 mi WSW 3.5 mph - N/A   Clear
7:15 PM 52.2 °F - 40.5 °F 64% 30.12 in 10.0 mi WSW 3.5 mph - N/A   Clear
7:35 PM 49.8 °F - 41.7 °F 74% 30.13 in 10.0 mi WSW 3.5 mph - N/A   Clear
7:55 PM 47.1 °F - 43.2 °F 86% 30.14 in 10.0 mi WSW 4.6 mph - N/A   Clear
8:15 PM 52.2 °F - 40.1 °F 64% 30.14 in 10.0 mi WSW 4.6 mph - N/A   Clear
8:55 PM 44.8 °F - 42.6 °F 92% 30.16 in 10.0 mi Calm Calm - N/A   Clear
9:15 PM 43.7 °F - 42.6 °F 96% 30.17 in 10.0 mi Calm Calm - N/A   Clear
9:35 PM 43.0 °F - 42.1 °F 97% 30.18 in 10.0 mi Calm Calm - N/A   Clear
9:55 PM 45.7 °F 44.4 °F 41.4 °F 85% 30.19 in 10.0 mi West 3.5 mph - N/A   Clear
10:15 PM 45.0 °F - 41.0 °F 86% 30.19 in 10.0 mi Calm Calm - N/A   Clear
10:35 PM 44.2 °F 42.7 °F 41.2 °F 89% 30.20 in 10.0 mi WSW 3.5 mph - N/A   Clear
10:55 PM 43.0 °F 41.3 °F 41.2 °F 93% 30.20 in 10.0 mi SW 3.5 mph - N/A   Clear
11:15 PM 41.9 °F - 40.6 °F 95% 30.21 in 10.0 mi Calm Calm - N/A   Clear
11:35 PM 41.5 °F - 40.6 °F 97% 30.21 in 10.0 mi Calm Calm - N/A   Clear
11:55 PM 41.9 °F 40.0 °F 39.9 °F 93% 30.21 in 10.0 mi West 3.5 mph - N/A   Clear